Jerome, ID

3:15 PM MDT on October 23, 2017 (GMT -0600)
Jerome County

Weather History for KJER - September, 2013

Change the Weather History Date:

Sunday, September 15, 2013

  Actual Average Record
Temperature  
Mean Temperature 69 °F 61 °F  
Max Temperature 83 °F 76 °F 100 °F (2000)
Min Temperature 55 °F 47 °F 34 °F (1921)
Degree Days  
Heating Degree Days 0 5  
Month to date heating degree days 1 55  
Since 1 July heating degree days 1 88  
Cooling Degree Days 4 1  
Month to date cooling degree days 80 35  
Year to date cooling degree days 898 500  
Growing Degree Days 18 (Base 50)    
Moisture  
Dew Point 51 °F    
Average Humidity 56    
Maximum Humidity 77    
Minimum Humidity 34    
Precipitation  
Precipitation 0.00 in 0.02 in 0.34 in (2015)
Month to date precipitation 0.23 0.15  
Year to date precipitation 2.75 7.01  
Sea Level Pressure  
Sea Level Pressure 29.88 in    
Wind  
Wind Speed 11 mph (ENE)    
Max Wind Speed 16 mph    
Max Gust Speed 22 mph    
Visibility 10 miles    
Events      
T = Trace of Precipitation, MM = Missing Value Source: NWS Daily Summary

Daily Weather History Graph

Daily Weather History Graph

Search for Another Location

Airport or City:

Trip Planner

Search our weather history database for the weather conditions in past years. The results will help you decide how hot, cold, wet, or windy it might be!

Date:

Astronomy

Sep. 15, 2013 Rise Set
Actual Time 7:17 AM MDT 7:47 PM MDT
Civil Twilight 6:49 AM MDT 8:15 PM MDT
Nautical Twilight 6:16 AM MDT 8:48 PM MDT
Astronomical Twilight 5:41 AM MDT 9:23 PM MDT
Moon 5:21 PM MDT (9/15) 2:55 AM MDT (9/15)
Length of Visible Light 13h 25m
Length of Day
12h 29m
Waxing Gibbous, 82% of the Moon is Illuminated
Sep 15
Waxing Gibbous
Sep 19
Full
Sep 26
Last Quarter
Oct 4
New
Oct 11
First Quarter

Hourly Weather History & Observations

Time (MDT) Temp. Dew Point Humidity Pressure Visibility Wind Dir Wind Speed Gust Speed Precip Events Conditions
12:53 AM 60.1 °F 48.9 °F 67% 29.89 in 10.0 mi East 9.2 mph - N/A   Clear
1:53 AM 57.9 °F 48.9 °F 72% 29.89 in 10.0 mi East 9.2 mph - N/A   Clear
2:53 AM 59.0 °F 48.0 °F 67% 29.88 in 10.0 mi East 9.2 mph - N/A   Clear
3:53 AM 60.1 °F 48.0 °F 64% 29.88 in 10.0 mi ENE 9.2 mph - N/A   Clear
4:53 AM 57.0 °F 48.0 °F 72% 29.90 in 10.0 mi NE 9.2 mph - N/A   Clear
5:53 AM 55.9 °F 48.0 °F 75% 29.91 in 10.0 mi NE 11.5 mph - N/A   Clear
6:53 AM 55.9 °F 48.0 °F 75% 29.91 in 10.0 mi ENE 12.7 mph - N/A   Clear
7:53 AM 55.9 °F 48.9 °F 77% 29.94 in 10.0 mi East 16.1 mph - N/A   Clear
8:53 AM 62.1 °F 50.0 °F 65% 29.93 in 10.0 mi ENE 13.8 mph - N/A   Clear
9:53 AM 68.0 °F 52.0 °F 56% 29.92 in 10.0 mi East 12.7 mph - N/A   Clear
10:53 AM 72.0 °F 53.1 °F 51% 29.92 in 10.0 mi East 11.5 mph - N/A   Clear
11:53 AM 75.9 °F 51.1 °F 42% 29.92 in 10.0 mi ENE 9.2 mph - N/A   Clear
12:53 PM 78.1 °F 52.0 °F 40% 29.91 in 10.0 mi ENE 6.9 mph - N/A   Clear
1:53 PM 80.1 °F 52.0 °F 38% 29.89 in 10.0 mi East 8.1 mph - N/A   Clear
2:53 PM 81.0 °F 52.0 °F 36% 29.86 in 10.0 mi East 10.4 mph 16.1 mph N/A   Partly Cloudy
3:53 PM 82.0 °F 51.1 °F 34% 29.85 in 10.0 mi East 6.9 mph - N/A   Partly Cloudy
4:53 PM 82.9 °F 51.1 °F 33% 29.83 in 10.0 mi East 10.4 mph 16.1 mph N/A   Clear
5:53 PM 81.0 °F 52.0 °F 36% 29.82 in 10.0 mi East 11.5 mph - N/A   Clear
6:53 PM 78.1 °F 54.0 °F 43% 29.83 in 10.0 mi East 9.2 mph - N/A   Clear
7:53 PM 73.0 °F 53.1 °F 49% 29.83 in 10.0 mi ENE 11.5 mph - N/A   Clear
8:53 PM 71.1 °F 53.1 °F 53% 29.83 in 10.0 mi ENE 12.7 mph - N/A   Clear
9:53 PM 69.1 °F 54.0 °F 58% 29.83 in 10.0 mi East 11.5 mph - N/A   Clear
10:53 PM 66.0 °F 54.0 °F 65% 29.83 in 10.0 mi East 11.5 mph - N/A   Clear
11:53 PM 64.9 °F 53.1 °F 65% 29.83 in 10.0 mi East 11.5 mph - N/A   Clear